QPF
0.00 0.00 0.00 0.00 0.00 0.00 0.01 0.01 0.01 0.01 0.00 0.00 0.01 0.02 0.02 0.02 0.01 0.01 0.01 0.01 0.01 0.02 0.02 0.02 0.01 0.01 0.00 0.00 0.00 0.01 0.01 0.01 0.01 0.01 0.01 0.01 0.01 0.02 0.03 0.03 0.02 0.01 0.02 0.03
0.00 0.00 0.00 0.00 0.00 0.00 0.00 0.00 0.01 0.01 0.00 0.00 0.01 0.01 0.02 0.02 0.01 0.00 0.00 0.01 0.02 0.02 0.03 0.03 0.02 0.01 0.01 0.01 0.01 0.01 0.03 0.02 0.02 0.01 0.01 0.01 0.01 0.01 0.01 0.01 0.01 0.01 0.02 0.02
0.00 0.00 0.00 0.00 0.00 0.00 0.00 0.00 0.00 0.00 0.00 0.00 0.01 0.02 0.02 0.02 0.01 0.00 0.00 0.01 0.01 0.02 0.03 0.03 0.03 0.03 0.02 0.01 0.01 0.01 0.02 0.02 0.01 0.01 0.01 0.01 0.01 0.00 0.00 0.01 0.00 0.01 0.01 0.01
0.00 0.00 0.00 0.00 0.00 0.00 0.00 0.00 0.00 0.00 0.00 0.01 0.01 0.02 0.02 0.02 0.01 0.01 0.01 0.01 0.02 0.02 0.03 0.04 0.04 0.02 0.02 0.02 0.01 0.01 0.02 0.02 0.03 0.03 0.02 0.03 0.02 0.01 0.01 0.01 0.01 0.01 0.00 0.00
0.00 0.00 0.00 0.00 0.00 0.01 0.01 0.00 0.00 0.00 0.00 0.01 0.02 0.01 0.02 0.02 0.02 0.02 0.02 0.02 0.02 0.02 0.02 0.03 0.03 0.03 0.02 0.02 0.01 0.01 0.01 0.01 0.02 0.03 0.03 0.04 0.04 0.03 0.01 0.01 0.01 0.01 0.01 0.00
0.00 0.00 0.00 0.00 0.01 0.01 0.01 0.00 0.00 0.01 0.01 0.01 0.01 0.01 0.02 0.01 0.01 0.01 0.01 0.02 0.02 0.02 0.02 0.02 0.02 0.03 0.02 0.02 0.02 0.01 0.01 0.01 0.01 0.02 0.03 0.02 0.02 0.02 0.01 0.01 0.02 0.02 0.01 0.01
0.00 0.00 0.00 0.01 0.01 0.01 0.00 0.01 0.01 0.01 0.01 0.02 0.02 0.02 0.02 0.01 0.00 0.00 0.01 0.01 0.01 0.01 0.01 0.01 0.02 0.03 0.03 0.03 0.03 0.02 0.01 0.01 0.01 0.02 0.03 0.02 0.01 0.01 0.01 0.01 0.01 0.01 0.01 0.01
0.00 0.00 0.00 0.00 0.00 0.01 0.01 0.01 0.01 0.03 0.02 0.01 0.02 0.02 0.02 0.01 0.01 0.00 0.00 0.00 0.01 0.01 0.02 0.02 0.02 0.02 0.03 0.03 0.03 0.03 0.01 0.01 0.02 0.02 0.02 0.03 0.01 0.00 0.00 0.01 0.01 0.01 0.01 0.01
0.00 0.00 0.00 0.01 0.01 0.01 0.01 0.01 0.01 0.02 0.01 0.01 0.01 0.02 0.03 0.02 0.02 0.01 0.01 0.00 0.01 0.02 0.02 0.03 0.03 0.03 0.03 0.03 0.04 0.03 0.02 0.02 0.03 0.02 0.02 0.03 0.01 0.01 0.01 0.00 0.01 0.01 0.01 0.01
0.00 0.01 0.01 0.01 0.01 0.01 0.01 0.02 0.02 0.03 0.04 0.02 0.02 0.02 0.02 0.02 0.02 0.01 0.01 0.00 0.01 0.01 0.02 0.03 0.03 0.04 0.03 0.04 0.05 0.05 0.04 0.03 0.03 0.03 0.03 0.03 0.02 0.01 0.01 0.01 0.01 0.01 0.01 0.01
0.00 0.01 0.01 0.01 0.01 0.01 0.01 0.02 0.02 0.02 0.03 0.03 0.02 0.01 0.01 0.02 0.03 0.02 0.02 0.01 0.01 0.01 0.02 0.02 0.03 0.05 0.05 0.03 0.04 0.05 0.05 0.04 0.04 0.03 0.03 0.02 0.01 0.01 0.01 0.01 0.02 0.01 0.01 0.01
0.00 0.00 0.00 0.01 0.01 0.01 0.01 0.02 0.02 0.02 0.01 0.03 0.02 0.01 0.01 0.01 0.02 0.02 0.02 0.02 0.03 0.02 0.02 0.02 0.02 0.03 0.04 0.04 0.03 0.03 0.04 0.04 0.03 0.03 0.03 0.02 0.01 0.01 0.01 0.01 0.01 0.02 0.01 0.01
0.00 0.00 0.00 0.00 0.01 0.01 0.01 0.02 0.02 0.01 0.02 0.03 0.03 0.01 0.02 0.01 0.01 0.02 0.02 0.02 0.03 0.04 0.03 0.03 0.03 0.04 0.03 0.03 0.02 0.02 0.03 0.03 0.03 0.03 0.03 0.02 0.02 0.02 0.02 0.01 0.01 0.02 0.02 0.01
0.00 0.00 0.00 0.00 0.01 0.01 0.01 0.01 0.02 0.03 0.04 0.04 0.02 0.03 0.04 0.04 0.02 0.01 0.02 0.02 0.02 0.05 0.05 0.05 0.06 0.05 0.03 0.02 0.02 0.02 0.03 0.03 0.03 0.03 0.03 0.03 0.02 0.03 0.02 0.02 0.01 0.01 0.01 0.01
0.00 0.00 0.00 0.00 0.00 0.01 0.01 0.01 0.02 0.02 0.03 0.03 0.02 0.04 0.03 0.02 0.01 0.01 0.02 0.02 0.02 0.04 0.06 0.07 0.09 0.09 0.04 0.02 0.02 0.02 0.02 0.03 0.02 0.03 0.03 0.03 0.02 0.03 0.03 0.02 0.02 0.02 0.01 0.01
0.00 0.00 0.00 0.00 0.00 0.00 0.01 0.01 0.01 0.01 0.02 0.01 0.01 0.01 0.01 0.01 0.01 0.01 0.01 0.02 0.01 0.02 0.04 0.06 0.07 0.12 0.08 0.04 0.02 0.02 0.02 0.03 0.03 0.03 0.03 0.02 0.03 0.03 0.03 0.03 0.02 0.02 0.02 0.01
0.00 0.00 0.00 0.00 0.00 0.00 0.00 0.01 0.01 0.01 0.01 0.02 0.01 0.01 0.01 0.00 0.00 0.01 0.01 0.01 0.01 0.01 0.02 0.04 0.05 0.08 0.09 0.07 0.04 0.02 0.02 0.03 0.03 0.02 0.02 0.02 0.02 0.03 0.03 0.03 0.03 0.02 0.02 0.02
0.00 0.00 0.00 0.00 0.01 0.01 0.00 0.01 0.01 0.01 0.01 0.01 0.01 0.01 0.01 0.00 0.00 0.00 0.01 0.00 0.01 0.01 0.02 0.02 0.04 0.05 0.05 0.06 0.06 0.04 0.03 0.02 0.03 0.03 0.02 0.02 0.02 0.02 0.02 0.02 0.02 0.03 0.03 0.02
0.00 0.00 0.00 0.01 0.01 0.01 0.01 0.01 0.01 0.02 0.01 0.01 0.02 0.01 0.01 0.00 0.00 0.00 0.00 0.00 0.00 0.01 0.01 0.01 0.01 0.02 0.03 0.04 0.05 0.05 0.05 0.04 0.03 0.03 0.02 0.02 0.02 0.02 0.02 0.03 0.02 0.02 0.03 0.02
0.00 0.00 0.01 0.01 0.02 0.01 0.02 0.02 0.02 0.02 0.02 0.01 0.01 0.01 0.01 0.01 0.01 0.00 0.00 0.00 0.00 0.00 0.01 0.01 0.01 0.01 0.01 0.02 0.03 0.05 0.05 0.05 0.04 0.05 0.04 0.03 0.02 0.02 0.02 0.02 0.02 0.02 0.03 0.02
0.00 0.00 0.00 0.01 0.01 0.01 0.03 0.03 0.03 0.04 0.03 0.01 0.01 0.01 0.01 0.01 0.01 0.01 0.00 0.00 0.00 0.00 0.01 0.01 0.01 0.01 0.01 0.02 0.03 0.05 0.07 0.06 0.05 0.06 0.05 0.03 0.02 0.02 0.02 0.02 0.01 0.02 0.03 0.03
0.00 0.00 0.01 0.02 0.02 0.03 0.03 0.03 0.02 0.02 0.01 0.01 0.01 0.01 0.01 0.01 0.01 0.01 0.00 0.00 0.01 0.01 0.01 0.01 0.01 0.01 0.01 0.01 0.02 0.05 0.08 0.05 0.04 0.04 0.04 0.02 0.02 0.01 0.02 0.02 0.02 0.02 0.04 0.03
0.00 0.00 0.02 0.02 0.02 0.02 0.03 0.03 0.03 0.03 0.02 0.01 0.01 0.01 0.01 0.01 0.01 0.00 0.00 0.00 0.01 0.01 0.01 0.00 0.00 0.01 0.02 0.02 0.02 0.05 0.07 0.06 0.04 0.04 0.03 0.02 0.01 0.01 0.02 0.02 0.02 0.03 0.03 0.03
0.00 0.00 0.01 0.02 0.01 0.01 0.01 0.02 0.02 0.03 0.03 0.01 0.01 0.01 0.01 0.01 0.00 0.00 0.00 0.01 0.01 0.01 0.00 0.00 0.00 0.01 0.01 0.01 0.03 0.06 0.08 0.07 0.04 0.04 0.02 0.01 0.01 0.01 0.01 0.02 0.02 0.02 0.03 0.03
0.00 0.00 0.01 0.01 0.01 0.01 0.00 0.01 0.01 0.03 0.04 0.02 0.01 0.00 0.00 0.00 0.00 0.00 0.00 0.02 0.02 0.01 0.00 0.01 0.01 0.01 0.01 0.01 0.02 0.07 0.08 0.06 0.05 0.04 0.02 0.01 0.01 0.01 0.01 0.02 0.02 0.02 0.02 0.03
0.00 0.00 0.00 0.01 0.01 0.01 0.00 0.00 0.01 0.02 0.03 0.03 0.02 0.01 0.01 0.00 0.00 0.00 0.01 0.03 0.02 0.01 0.01 0.01 0.01 0.00 0.00 0.00 0.01 0.06 0.08 0.05 0.03 0.03 0.03 0.03 0.02 0.01 0.01 0.02 0.02 0.02 0.02 0.03
MSLP
1010.87 1011.91 1012.84 1013.65 1014.36 1014.97 1015.54 1016.06 1016.53 1016.94 1017.25 1017.45 1017.52 1017.46 1017.31 1017.10 1016.89 1016.72 1016.63 1016.62 1016.67 1016.78 1016.89 1017.00 1017.07 1017.13 1017.18 1017.25 1017.37 1017.56 1017.83 1018.15 1018.50 1018.84 1019.14 1019.38 1019.53 1019.62 1019.65 1019.67 1019.70 1019.77 1019.90 1020.09
1011.18 1012.01 1012.72 1013.34 1013.91 1014.46 1015.03 1015.63 1016.21 1016.75 1017.17 1017.43 1017.51 1017.42 1017.19 1016.89 1016.60 1016.38 1016.27 1016.29 1016.41 1016.60 1016.80 1016.97 1017.08 1017.13 1017.14 1017.16 1017.23 1017.38 1017.65 1018.01 1018.45 1018.90 1019.31 1019.65 1019.88 1020.00 1020.03 1020.01 1019.98 1019.99 1020.07 1020.23
1011.26 1011.89 1012.40 1012.85 1013.32 1013.85 1014.47 1015.16 1015.88 1016.53 1017.05 1017.35 1017.42 1017.25 1016.91 1016.49 1016.09 1015.79 1015.65 1015.69 1015.89 1016.18 1016.50 1016.77 1016.95 1017.04 1017.06 1017.06 1017.09 1017.23 1017.49 1017.89 1018.38 1018.92 1019.43 1019.85 1020.16 1020.31 1020.35 1020.30 1020.24 1020.20 1020.24 1020.37
1011.12 1011.56 1011.91 1012.25 1012.68 1013.24 1013.95 1014.77 1015.63 1016.41 1017.00 1017.32 1017.32 1017.04 1016.54 1015.95 1015.38 1014.97 1014.77 1014.82 1015.08 1015.49 1015.94 1016.35 1016.65 1016.83 1016.90 1016.92 1016.96 1017.09 1017.35 1017.77 1018.29 1018.89 1019.47 1019.97 1020.33 1020.53 1020.58 1020.53 1020.44 1020.38 1020.39 1020.49
1010.77 1011.06 1011.31 1011.61 1012.06 1012.70 1013.55 1014.54 1015.55 1016.44 1017.09 1017.38 1017.29 1016.84 1016.14 1015.32 1014.56 1013.98 1013.69 1013.72 1014.03 1014.54 1015.14 1015.71 1016.17 1016.48 1016.65 1016.73 1016.80 1016.94 1017.21 1017.63 1018.18 1018.80 1019.42 1019.96 1020.37 1020.61 1020.70 1020.67 1020.58 1020.51 1020.51 1020.61
1010.28 1010.47 1010.67 1010.98 1011.51 1012.29 1013.30 1014.46 1015.63 1016.62 1017.29 1017.54 1017.32 1016.69 1015.75 1014.68 1013.69 1012.93 1012.51 1012.49 1012.82 1013.42 1014.15 1014.89 1015.53 1015.99 1016.30 1016.48 1016.61 1016.78 1017.05 1017.47 1018.01 1018.64 1019.27 1019.85 1020.29 1020.58 1020.71 1020.71 1020.66 1020.60 1020.61 1020.71
1009.73 1009.85 1010.03 1010.40 1011.03 1011.97 1013.16 1014.49 1015.79 1016.86 1017.55 1017.74 1017.38 1016.55 1015.38 1014.07 1012.84 1011.89 1011.33 1011.23 1011.56 1012.22 1013.08 1013.97 1014.77 1015.41 1015.86 1016.15 1016.36 1016.57 1016.85 1017.26 1017.78 1018.39 1019.03 1019.62 1020.10 1020.43 1020.61 1020.68 1020.67 1020.66 1020.69 1020.81
1009.19 1009.25 1009.45 1009.87 1010.62 1011.69 1013.03 1014.50 1015.91 1017.05 1017.73 1017.85 1017.38 1016.39 1015.03 1013.51 1012.08 1010.95 1010.26 1010.09 1010.39 1011.09 1012.02 1013.04 1013.98 1014.77 1015.36 1015.76 1016.05 1016.31 1016.60 1016.99 1017.49 1018.08 1018.70 1019.30 1019.81 1020.19 1020.44 1020.57 1020.64 1020.69 1020.77 1020.91
1008.73 1008.75 1008.93 1009.41 1010.23 1011.40 1012.83 1014.39 1015.85 1017.01 1017.69 1017.77 1017.22 1016.12 1014.64 1012.99 1011.44 1010.18 1009.40 1009.14 1009.41 1010.11 1011.09 1012.18 1013.22 1014.12 1014.82 1015.33 1015.69 1015.99 1016.30 1016.68 1017.16 1017.71 1018.32 1018.92 1019.45 1019.89 1020.20 1020.42 1020.57 1020.69 1020.82 1021.00
1008.40 1008.36 1008.52 1008.99 1009.82 1011.01 1012.47 1014.04 1015.50 1016.65 1017.31 1017.37 1016.80 1015.68 1014.17 1012.50 1010.90 1009.61 1008.77 1008.47 1008.69 1009.37 1010.34 1011.45 1012.54 1013.51 1014.28 1014.86 1015.29 1015.63 1015.95 1016.33 1016.78 1017.31 1017.90 1018.50 1019.05 1019.54 1019.92 1020.22 1020.45 1020.65 1020.85 1021.06
1008.23 1008.10 1008.20 1008.61 1009.39 1010.52 1011.90 1013.39 1014.79 1015.90 1016.53 1016.60 1016.06 1015.01 1013.58 1011.98 1010.45 1009.20 1008.37 1008.05 1008.24 1008.86 1009.79 1010.88 1011.96 1012.94 1013.75 1014.37 1014.85 1015.22 1015.57 1015.95 1016.39 1016.91 1017.48 1018.07 1018.64 1019.16 1019.61 1019.98 1020.29 1020.57 1020.82 1021.08
1008.20 1007.99 1007.98 1008.28 1008.93 1009.91 1011.14 1012.49 1013.75 1014.77 1015.37 1015.46 1015.01 1014.10 1012.83 1011.40 1010.03 1008.89 1008.13 1007.83 1007.99 1008.54 1009.40 1010.40 1011.43 1012.39 1013.20 1013.85 1014.36 1014.78 1015.16 1015.55 1016.00 1016.51 1017.07 1017.65 1018.24 1018.78 1019.28 1019.71 1020.09 1020.42 1020.73 1021.04
1008.31 1007.99 1007.87 1008.02 1008.48 1009.25 1010.26 1011.38 1012.47 1013.36 1013.91 1014.04 1013.71 1012.97 1011.93 1010.74 1009.58 1008.61 1007.95 1007.68 1007.81 1008.30 1009.05 1009.96 1010.90 1011.80 1012.60 1013.26 1013.81 1014.28 1014.70 1015.14 1015.60 1016.12 1016.68 1017.26 1017.84 1018.40 1018.93 1019.40 1019.83 1020.22 1020.59 1020.93
1008.53 1008.12 1007.86 1007.83 1008.08 1008.60 1009.35 1010.22 1011.09 1011.83 1012.31 1012.46 1012.25 1011.70 1010.91 1009.97 1009.05 1008.27 1007.73 1007.51 1007.61 1008.01 1008.65 1009.43 1010.28 1011.11 1011.88 1012.57 1013.16 1013.69 1014.19 1014.68 1015.19 1015.73 1016.29 1016.88 1017.46 1018.02 1018.56 1019.07 1019.54 1019.98 1020.40 1020.79
1008.83 1008.34 1007.96 1007.76 1007.79 1008.06 1008.53 1009.13 1009.76 1010.33 1010.72 1010.88 1010.77 1010.40 1009.82 1009.13 1008.43 1007.82 1007.40 1007.20 1007.27 1007.58 1008.09 1008.76 1009.50 1010.27 1011.02 1011.73 1012.38 1013.00 1013.58 1014.16 1014.73 1015.31 1015.90 1016.49 1017.07 1017.64 1018.19 1018.73 1019.23 1019.72 1020.18 1020.63
1009.21 1008.65 1008.17 1007.83 1007.66 1007.69 1007.90 1008.24 1008.65 1009.03 1009.32 1009.45 1009.40 1009.17 1008.77 1008.27 1007.75 1007.27 1006.92 1006.74 1006.75 1006.96 1007.35 1007.89 1008.54 1009.25 1009.98 1010.73 1011.46 1012.17 1012.86 1013.54 1014.20 1014.84 1015.46 1016.07 1016.67 1017.25 1017.82 1018.38 1018.93 1019.46 1019.98 1020.48
1009.65 1009.06 1008.51 1008.05 1007.73 1007.57 1007.56 1007.67 1007.87 1008.08 1008.25 1008.34 1008.30 1008.14 1007.85 1007.48 1007.07 1006.68 1006.36 1006.15 1006.09 1006.19 1006.46 1006.88 1007.43 1008.09 1008.82 1009.60 1010.41 1011.22 1012.03 1012.81 1013.57 1014.28 1014.97 1015.61 1016.24 1016.84 1017.44 1018.03 1018.63 1019.22 1019.80 1020.36
1010.18 1009.57 1008.98 1008.45 1008.03 1007.73 1007.56 1007.49 1007.51 1007.57 1007.63 1007.64 1007.58 1007.43 1007.19 1006.87 1006.51 1006.13 1005.80 1005.54 1005.39 1005.37 1005.52 1005.83 1006.29 1006.89 1007.61 1008.42 1009.29 1010.20 1011.11 1012.00 1012.84 1013.64 1014.39 1015.10 1015.76 1016.41 1017.05 1017.69 1018.34 1019.00 1019.65 1020.27
1010.79 1010.18 1009.58 1009.03 1008.56 1008.18 1007.90 1007.71 1007.60 1007.54 1007.49 1007.42 1007.31 1007.13 1006.87 1006.55 1006.17 1005.77 1005.39 1005.05 1004.80 1004.67 1004.69 1004.88 1005.25 1005.79 1006.49 1007.30 1008.21 1009.18 1010.17 1011.14 1012.07 1012.94 1013.76 1014.53 1015.25 1015.96 1016.65 1017.36 1018.07 1018.79 1019.50 1020.20
1011.49 1010.89 1010.31 1009.76 1009.28 1008.87 1008.54 1008.29 1008.09 1007.94 1007.80 1007.65 1007.47 1007.24 1006.94 1006.57 1006.15 1005.70 1005.24 1004.81 1004.46 1004.22 1004.13 1004.22 1004.49 1004.95 1005.59 1006.38 1007.29 1008.27 1009.29 1010.30 1011.29 1012.22 1013.10 1013.93 1014.72 1015.48 1016.25 1017.01 1017.79 1018.58 1019.35 1020.10
1012.24 1011.67 1011.11 1010.60 1010.14 1009.74 1009.40 1009.12 1008.88 1008.68 1008.47 1008.26 1008.01 1007.72 1007.36 1006.94 1006.47 1005.96 1005.43 1004.93 1004.49 1004.16 1003.96 1003.94 1004.11 1004.48 1005.03 1005.75 1006.60 1007.55 1008.55 1009.56 1010.56 1011.53 1012.44 1013.32 1014.17 1015.00 1015.83 1016.66 1017.49 1018.33 1019.15 1019.94
1013.00 1012.45 1011.93 1011.46 1011.03 1010.67 1010.35 1010.08 1009.84 1009.60 1009.37 1009.11 1008.81 1008.46 1008.06 1007.60 1007.08 1006.53 1005.96 1005.41 1004.91 1004.50 1004.22 1004.11 1004.17 1004.42 1004.86 1005.47 1006.22 1007.08 1008.01 1008.97 1009.94 1010.90 1011.83 1012.74 1013.63 1014.51 1015.39 1016.28 1017.16 1018.03 1018.89 1019.70
1013.69 1013.16 1012.67 1012.23 1011.86 1011.53 1011.26 1011.01 1010.79 1010.55 1010.30 1010.02 1009.70 1009.33 1008.89 1008.41 1007.88 1007.32 1006.74 1006.17 1005.65 1005.20 1004.86 1004.66 1004.62 1004.75 1005.06 1005.53 1006.13 1006.86 1007.68 1008.55 1009.45 1010.37 1011.29 1012.21 1013.12 1014.03 1014.95 1015.86 1016.77 1017.67 1018.54 1019.36
1014.19 1013.68 1013.21 1012.81 1012.48 1012.21 1011.97 1011.77 1011.57 1011.35 1011.11 1010.83 1010.50 1010.13 1009.70 1009.23 1008.71 1008.17 1007.62 1007.08 1006.57 1006.12 1005.75 1005.49 1005.36 1005.37 1005.53 1005.84 1006.29 1006.85 1007.52 1008.27 1009.08 1009.93 1010.81 1011.71 1012.62 1013.55 1014.48 1015.41 1016.33 1017.23 1018.10 1018.92
1014.41 1013.90 1013.45 1013.09 1012.79 1012.56 1012.37 1012.21 1012.05 1011.86 1011.64 1011.38 1011.07 1010.71 1010.32 1009.88 1009.42 1008.94 1008.45 1007.96 1007.50 1007.07 1006.70 1006.40 1006.20 1006.11 1006.13 1006.29 1006.57 1006.97 1007.48 1008.09 1008.79 1009.55 1010.37 1011.23 1012.13 1013.05 1013.98 1014.91 1015.83 1016.72 1017.58 1018.40
1014.27 1013.75 1013.32 1012.97 1012.71 1012.52 1012.38 1012.26 1012.14 1011.99 1011.80 1011.57 1011.29 1010.98 1010.63 1010.25 1009.86 1009.46 1009.05 1008.65 1008.25 1007.88 1007.53 1007.22 1006.97 1006.79 1006.70 1006.72 1006.85 1007.09 1007.45 1007.93 1008.51 1009.19 1009.94 1010.76 1011.63 1012.53 1013.44 1014.36 1015.27 1016.15 1017.00 1017.81
Thickness
5750 5733 5722 5727 5732 5731 5728 5722 5717 5726 5742 5734 5725 5725 5731 5737 5736 5733 5730 5730 5731 5732 5736 5737 5737 5736 5734 5731 5728 5726 5724 5721 5719 5715 5711 5709 5707 5707 5706 5706 5705 5704 5703 5702
5729 5724 5739 5744 5742 5736 5729 5719 5717 5726 5739 5732 5723 5722 5729 5733 5733 5734 5731 5729 5730 5730 5730 5731 5732 5732 5730 5728 5726 5724 5721 5719 5717 5715 5712 5709 5707 5705 5704 5703 5702 5701 5700 5699
5722 5733 5747 5741 5733 5728 5725 5719 5718 5719 5727 5729 5721 5712 5719 5727 5732 5733 5733 5732 5731 5730 5727 5727 5727 5727 5727 5725 5724 5723 5720 5718 5716 5714 5710 5707 5704 5702 5700 5699 5698 5698 5698 5697
5729 5740 5741 5734 5730 5728 5715 5730 5728 5723 5710 5700 5710 5688 5707 5715 5719 5722 5723 5725 5726 5729 5728 5726 5726 5724 5724 5724 5723 5722 5719 5717 5714 5712 5708 5704 5699 5696 5696 5696 5696 5696 5696 5695
5723 5735 5732 5727 5731 5733 5725 5734 5728 5722 5710 5698 5700 5689 5696 5709 5707 5712 5717 5720 5723 5726 5726 5725 5725 5724 5724 5723 5721 5719 5717 5714 5712 5710 5707 5703 5699 5697 5696 5695 5694 5693 5693 5693
5729 5740 5738 5735 5739 5738 5733 5724 5716 5705 5694 5682 5695 5687 5688 5698 5707 5712 5715 5718 5720 5722 5724 5724 5724 5722 5721 5720 5718 5716 5713 5710 5709 5707 5704 5701 5697 5695 5693 5692 5690 5690 5690 5690
5713 5725 5736 5739 5726 5726 5720 5695 5675 5673 5666 5673 5695 5688 5690 5709 5715 5715 5714 5714 5717 5718 5718 5719 5718 5717 5716 5714 5713 5712 5710 5706 5705 5703 5701 5699 5697 5695 5692 5690 5689 5688 5687 5686
5692 5695 5719 5728 5721 5712 5710 5695 5671 5660 5660 5670 5687 5682 5694 5714 5717 5717 5715 5713 5713 5713 5713 5715 5716 5715 5713 5711 5710 5708 5706 5703 5701 5700 5697 5696 5695 5693 5691 5689 5688 5686 5685 5685
5688 5691 5718 5726 5728 5720 5704 5694 5693 5674 5671 5664 5670 5681 5696 5710 5708 5709 5708 5707 5707 5708 5709 5710 5712 5711 5709 5707 5706 5705 5703 5700 5698 5696 5695 5693 5691 5690 5688 5687 5686 5685 5684 5684
5698 5688 5704 5716 5721 5717 5710 5699 5679 5669 5656 5650 5662 5669 5675 5690 5694 5699 5699 5700 5702 5704 5705 5705 5706 5706 5706 5704 5703 5701 5699 5696 5694 5692 5690 5689 5687 5687 5685 5684 5682 5682 5681 5681
5699 5684 5688 5698 5697 5695 5697 5692 5679 5663 5658 5648 5646 5660 5691 5691 5692 5692 5694 5696 5697 5698 5699 5699 5700 5700 5701 5700 5697 5695 5693 5691 5689 5688 5686 5685 5683 5682 5681 5680 5679 5679 5678 5678
5692 5676 5669 5682 5699 5704 5696 5687 5675 5657 5654 5652 5645 5657 5695 5694 5693 5691 5690 5691 5693 5693 5693 5694 5694 5694 5693 5693 5691 5689 5688 5687 5685 5684 5682 5680 5679 5678 5677 5676 5675 5675 5674 5673
5686 5669 5655 5662 5674 5686 5685 5685 5677 5665 5652 5644 5640 5655 5688 5687 5686 5687 5685 5685 5685 5686 5686 5686 5686 5686 5686 5686 5685 5685 5684 5683 5682 5680 5678 5675 5673 5672 5672 5671 5671 5671 5669 5668
5685 5664 5655 5651 5658 5667 5669 5675 5675 5662 5644 5642 5647 5656 5670 5675 5676 5678 5679 5679 5679 5679 5679 5678 5678 5678 5679 5680 5680 5680 5678 5678 5677 5675 5673 5670 5669 5668 5667 5667 5666 5665 5665 5664
5675 5659 5661 5662 5667 5667 5667 5668 5668 5660 5654 5645 5651 5655 5664 5669 5673 5675 5675 5674 5673 5672 5672 5673 5672 5672 5672 5673 5673 5673 5672 5671 5671 5669 5667 5666 5665 5664 5662 5661 5660 5660 5659 5659
5663 5656 5655 5655 5663 5662 5660 5664 5664 5662 5658 5654 5653 5654 5665 5668 5668 5666 5666 5666 5665 5665 5666 5667 5666 5665 5666 5666 5666 5667 5666 5665 5664 5662 5661 5661 5659 5657 5656 5655 5654 5653 5652 5652
5650 5646 5641 5638 5648 5651 5644 5656 5658 5656 5657 5653 5645 5651 5658 5656 5658 5659 5659 5659 5658 5658 5658 5658 5657 5657 5658 5659 5660 5660 5660 5660 5659 5657 5656 5654 5653 5651 5650 5650 5648 5647 5646 5646
5646 5638 5627 5626 5634 5627 5644 5657 5657 5652 5651 5652 5651 5651 5652 5652 5652 5654 5654 5653 5652 5652 5651 5651 5650 5651 5652 5653 5654 5654 5654 5654 5653 5652 5650 5649 5647 5645 5645 5643 5642 5641 5640 5639
5647 5636 5622 5615 5615 5623 5640 5649 5648 5643 5638 5645 5643 5644 5643 5644 5642 5641 5647 5648 5646 5646 5646 5645 5646 5645 5645 5646 5647 5647 5646 5646 5646 5645 5645 5644 5643 5640 5638 5637 5636 5636 5635 5634
5639 5633 5619 5610 5610 5611 5630 5644 5649 5639 5625 5637 5637 5635 5635 5634 5621 5626 5638 5639 5639 5640 5641 5640 5640 5640 5640 5640 5641 5640 5639 5639 5639 5640 5640 5640 5638 5635 5633 5633 5632 5631 5630 5629
5623 5617 5610 5604 5602 5611 5629 5638 5638 5615 5616 5629 5630 5629 5627 5622 5620 5625 5630 5631 5632 5633 5634 5634 5635 5634 5635 5635 5635 5633 5634 5634 5635 5635 5634 5633 5632 5631 5629 5628 5627 5625 5625 5623
5612 5606 5602 5598 5596 5605 5628 5628 5618 5616 5622 5623 5622 5622 5621 5620 5621 5622 5623 5624 5625 5626 5627 5628 5627 5627 5628 5628 5628 5627 5627 5629 5629 5628 5627 5626 5625 5624 5624 5621 5620 5619 5618 5616
5607 5608 5605 5603 5606 5616 5621 5620 5621 5620 5617 5617 5616 5617 5616 5615 5614 5616 5617 5618 5619 5621 5621 5622 5621 5620 5620 5621 5621 5620 5621 5622 5622 5621 5619 5619 5618 5617 5616 5615 5613 5612 5611 5610
5604 5608 5603 5601 5607 5611 5614 5616 5617 5616 5614 5614 5613 5612 5611 5609 5609 5609 5610 5610 5612 5614 5614 5614 5614 5612 5612 5613 5614 5614 5615 5615 5614 5613 5612 5611 5610 5609 5608 5607 5606 5605 5603 5603
5599 5600 5595 5594 5600 5603 5607 5608 5609 5610 5610 5609 5608 5607 5606 5605 5604 5603 5603 5604 5605 5606 5607 5607 5606 5605 5605 5607 5607 5608 5608 5608 5606 5605 5604 5603 5603 5601 5600 5600 5599 5599 5599 5598
5594 5593 5589 5590 5597 5593 5597 5602 5603 5602 5602 5601 5600 5599 5600 5599 5597 5597 5596 5597 5598 5598 5599 5599 5598 5598 5599 5600 5600 5601 5602 5601 5599 5597 5596 5595 5594 5593 5592 5591 5590 5591 5591 5592